Current weather by "City, St" or "zip code"  
 

Current Conditions: Doylestown, Doylestown Airport, PA

Fair


13.0 F

Last Updated on Jan 21 2019, 6:54 pm EST
Humidity: 33%
Wind Speed: NW 10.4 G 21.9 mph
Barometer 30.32 in
Dewpoint: -11. F
Visibility: 10.00 mi
Precip: --
Heat Index: NA
Wind Chill: NA
Current conditions at:

Doylestown, Doylestown Airport, PA (KDYL)

Lat: 40.33 Lon: 75.122

Local Radar Image active severe weather and emergency alerts image image weather storm and storm spotter reports image weather observation monitoring service image
Local
Radar
Active
Alerts
Storm Reports Obs
Monitoring

iAlert Weather and Emergency Alert Notification Services:


ialert severe weather and emergency alerts by text message and email ialert daily weather forecast by email and text message service ialert real-time weather-observation monitoring and alert notification service ialert storm report monitoring alert notification

Observation History for Doylestown, Doylestown Airport, PA


Time Wind
(mph)
Vis
(mi)
Weather Precip (in) Temperature (F) Relative
Humidity
Wind
Chill
(°F)
Heat
Index
(°F)
Pressure
Air Dwpt altimeter
(in)
sea level
(mb)
6:54 pm EST NW 10.4 G 21.9 10.00 Fair -- 13.0 -11. 33% NA NA 30.32 1028.2
5:54 pm EST NW 12.7 G 28.8 10.00 Fair -- 14.0 -9.9 33% NA NA 30.27 1026.6
4:54 pm EST NW 16.1 G 27.6 10.00 Fair -- 15.0 -11. 30% -1 NA 30.23 1025.3
3:54 pm EST NW 21.9 G 32.2 10.00 Fair and Breezy -- 16.0 -11. 29% -2 NA 30.20 1024.0
2:54 pm EST NW 18.4 G 31.1 10.00 Fair -- 16.0 -9.9 30% NA NA 30.18 1023.4
1:54 pm EST NW 18.4 G 35.7 10.00 Fair -- 15.0 -7.1 36% -2 NA 30.15 1022.4
12:54 pm EST W 20.7 G 34.5 10.00 Fair and Breezy -- 13.0 -6.0 42% -5 NA 30.15 1022.3
11:54 am EST NW 18.4 G 32.2 10.00 Fair -- 11.0 -8.0 42% -7 NA 30.15 1022.3
10:54 am EST NW 15.0 G 31.1 10.00 A Few Clouds -- 11.0 -8.0 42% -5 NA 30.14 1022.0
9:54 am EST W 24.2 G 32.2 10.00 A Few Clouds and Breezy -- 8.0 -9.9 43% -13 NA 30.09 1020.6
8:54 am EST W 18.4 G 34.5 10.00 Partly Cloudy -- 7.0 -9.9 45% -12 NA 30.06 1019.4
7:54 am EST W 13.8 G 31.1 10.00 A Few Clouds -- 6.0 -9.0 49% -11 NA 30.03 1018.4
6:54 am EST NW 13.8 G 31.1 10.00 Fair -- 6.0 -9.0 49% -11 NA 30.00 1017.5
5:54 am EST W 12.7 G 28.8 10.00 A Few Clouds -- 6.0 -9.0 49% -10 NA 29.98 1016.6
4:54 am EST NW 18.4 G 29.9 10.00 Fair -- 7.0 -8.0 50% -12 NA 29.95 1015.6
3:54 am EST NW 16.1 G 25.3 10.00 Fair -- 8.0 -8.0 47% -10 NA 29.93 1014.8
2:54 am EST NW 12.7 G 28.8 10.00 Fair -- 9.0 -6.0 50% -7 NA 29.92 1014.2
1:54 am EST W 17.3 G 27.6 10.00 A Few Clouds -- 10.0 -2.9 55% -8 NA 29.89 1013.4
12:54 am EST NW 20.7 G 32.2 10.00 Partly Cloudy and Breezy -- 12.0 -2.0 53% -7 NA 29.86 1012.2
11:54 pm EST NW 13.8 G 29.9 10.00 A Few Clouds -- 13.0 -2.0 51% -2 NA 29.84 1011.5
10:54 pm EST NW 15.0 G 28.8 10.00 Mostly Cloudy -- 15.0 0.0 51% NA NA 29.81 1010.4
9:54 pm EST NW 19.6 G 33.4 10.00 A Few Clouds -- 16.0 1.0 51% -1 NA 29.77 1009.0
8:54 pm EST NW 15.0 G 23.0 10.00 Mostly Cloudy -- 17.0 3.0 54% 2 NA 29.74 1008.1
7:54 pm EST NW 17.3 G 28.8 10.00 Mostly Cloudy -- 17.0 5.0 59% 1 NA 29.73 1007.6

Regional Weather Observation


Allentown, Lehigh Valley International Airport, PA (KABE)

Fair
14.0 F

Allentown Queen City Municipal Airport, PA (KXLL)

Fair
14.0 F

Doylestown, Doylestown Airport, PA (KDYL)

Fair
13.0 F

Pottstown, Pottstown Limerick Airport, PA (KPTW)

Fair
14.0 F

Philadelphia, Northeast Philadelphia Airport, PA (KPNE)

Fair and Breezy
18.0 F

Reading, Reading Regional Airport, PA (KRDG)

Fair
15.0 F

Advertise Here


Advertise Here